NOZ1151 ENGM-ENBR

Flight info

Callsign NOZ1151
Flight time 0h 42m
Altitude 28000
Route ATLAP DCT AGEKU DCT PESUR
Aircraft B738/M-SDE2E3FGHIRWXY/LB1

Departure

Time 2026-05-07 18:39
Airport Oslo-Gardermoen International Airport (ENGM)

Arrival

Time 2026-05-07 19:22
Airport Bergen Airport, Flesland (ENBR)
Time Latitude Longitude Altitude Speed Heading
2026-05-07 17:51 60.19419 11.10463 678 ft 0 kts 197°
2026-05-07 18:24 60.19426 11.10468 679 ft 2 kts 195°
2026-05-07 18:25 60.19442 11.10477 679 ft 2 kts 198°
2026-05-07 18:25 60.19458 11.10488 676 ft 2 kts 199°
2026-05-07 18:25 60.19473 11.10500 679 ft 2 kts 218°
2026-05-07 18:25 60.19478 11.10521 680 ft 1 kts 285°
2026-05-07 18:26 60.19477 11.10522 680 ft 0 kts 285°
2026-05-07 18:30 60.19479 11.10510 678 ft 2 kts 289°
2026-05-07 18:30 60.19509 11.10486 681 ft 8 kts 340°
2026-05-07 18:30 60.19559 11.10402 681 ft 11 kts 340°
2026-05-07 18:31 60.19639 11.10433 681 ft 12 kts 16°
2026-05-07 18:31 60.19716 11.10478 681 ft 12 kts 16°
2026-05-07 18:31 60.19804 11.10529 681 ft 14 kts 16°
2026-05-07 18:31 60.19887 11.10543 679 ft 12 kts 326°
2026-05-07 18:32 60.19921 11.10368 682 ft 15 kts 286°
2026-05-07 18:32 60.19951 11.10156 683 ft 16 kts 286°
2026-05-07 18:32 60.19984 11.09932 679 ft 17 kts 286°
2026-05-07 18:32 60.20017 11.09699 681 ft 17 kts 285°
2026-05-07 18:33 60.20051 11.09460 681 ft 18 kts 286°
2026-05-07 18:33 60.20086 11.09216 678 ft 18 kts 286°
2026-05-07 18:33 60.20119 11.08985 680 ft 14 kts 286°
2026-05-07 18:33 60.20196 11.08918 678 ft 15 kts 14°
2026-05-07 18:34 60.20296 11.08973 678 ft 15 kts 15°
2026-05-07 18:34 60.20401 11.09035 677 ft 16 kts 17°
2026-05-07 18:34 60.20510 11.09098 678 ft 16 kts 16°
2026-05-07 18:34 60.20615 11.09159 678 ft 16 kts 16°
2026-05-07 18:35 60.20721 11.09219 681 ft 15 kts 16°
2026-05-07 18:35 60.20789 11.09259 682 ft 15 kts 16°
2026-05-07 18:35 60.20919 11.09334 684 ft 14 kts 16°
2026-05-07 18:35 60.21021 11.09393 682 ft 17 kts 16°
2026-05-07 18:36 60.21139 11.09461 682 ft 19 kts 15°
2026-05-07 18:36 60.21274 11.09539 681 ft 21 kts 16°
2026-05-07 18:36 60.21416 11.09620 679 ft 16 kts 16°
2026-05-07 18:36 60.21482 11.09640 680 ft 14 kts 351°
2026-05-07 18:37 60.21550 11.09496 683 ft 17 kts 286°
2026-05-07 18:37 60.21579 11.09282 684 ft 14 kts 284°
2026-05-07 18:37 60.21587 11.09155 683 ft 4 kts 239°
2026-05-07 18:37 60.21566 11.09142 682 ft 0 kts 192°
2026-05-07 18:38 60.21560 11.09139 683 ft 5 kts 193°
2026-05-07 18:39 60.21360 11.09026 681 ft 65 kts 196°
2026-05-07 18:39 60.20701 11.08646 676 ft 130 kts 197°
2026-05-07 18:39 60.19694 11.08050 824 ft 165 kts 195°
2026-05-07 18:39 60.18588 11.07378 1536 ft 165 kts 195°
2026-05-07 18:40 60.17462 11.06676 2180 ft 181 kts 199°
2026-05-07 18:40 60.16338 11.05253 2470 ft 210 kts 230°
2026-05-07 18:40 60.15671 11.02512 2869 ft 225 kts 248°
2026-05-07 18:40 60.15060 10.99527 3414 ft 235 kts 246°
2026-05-07 18:41 60.14397 10.96488 4072 ft 239 kts 247°
2026-05-07 18:41 60.14013 10.93241 4771 ft 242 kts 268°
2026-05-07 18:41 60.14026 10.89866 5487 ft 243 kts 271°
2026-05-07 18:41 60.14064 10.86473 6184 ft 244 kts 271°
2026-05-07 18:42 60.14104 10.83055 6888 ft 244 kts 271°
2026-05-07 18:42 60.14141 10.79640 7545 ft 246 kts 271°
2026-05-07 18:42 60.14175 10.76190 8214 ft 248 kts 271°
2026-05-07 18:42 60.14207 10.72729 8887 ft 248 kts 271°
2026-05-07 18:43 60.14237 10.69263 9585 ft 248 kts 271°
2026-05-07 18:43 60.14265 10.65808 10255 ft 249 kts 271°
2026-05-07 18:43 60.14291 10.62328 10841 ft 250 kts 271°
2026-05-07 18:43 60.14316 10.58828 11467 ft 251 kts 271°
2026-05-07 18:44 60.14339 10.55298 12052 ft 257 kts 270°
2026-05-07 18:44 60.14363 10.51536 12257 ft 282 kts 270°
2026-05-07 18:44 60.14388 10.47434 12465 ft 306 kts 270°
2026-05-07 18:44 60.14413 10.43021 12811 ft 323 kts 270°
2026-05-07 18:45 60.14437 10.38465 13530 ft 329 kts 270°
2026-05-07 18:45 60.14460 10.33862 14345 ft 331 kts 270°
2026-05-07 18:45 60.14481 10.29238 15162 ft 332 kts 270°
2026-05-07 18:45 60.14501 10.24650 15962 ft 334 kts 270°
2026-05-07 18:46 60.14519 10.19973 16750 ft 337 kts 270°
2026-05-07 18:46 60.14554 10.15240 17361 ft 344 kts 272°
2026-05-07 18:46 60.14695 10.10330 17689 ft 358 kts 274°
2026-05-07 18:46 60.14890 10.05296 18277 ft 364 kts 274°
2026-05-07 18:47 60.15095 10.00215 18935 ft 366 kts 274°
2026-05-07 18:47 60.15296 9.95108 19564 ft 368 kts 274°
2026-05-07 18:47 60.15490 9.89993 20237 ft 368 kts 274°
2026-05-07 18:47 60.15677 9.84852 20870 ft 370 kts 274°
2026-05-07 18:48 60.15859 9.79674 21467 ft 373 kts 274°
2026-05-07 18:48 60.16038 9.74462 22061 ft 375 kts 274°
2026-05-07 18:48 60.16214 9.69216 22653 ft 377 kts 274°
2026-05-07 18:48 60.16388 9.63939 23233 ft 379 kts 274°
2026-05-07 18:49 60.16560 9.58638 23752 ft 382 kts 274°
2026-05-07 18:49 60.16732 9.53302 24216 ft 384 kts 274°
2026-05-07 18:49 60.16901 9.47953 24695 ft 384 kts 274°
2026-05-07 18:49 60.17069 9.42588 25143 ft 386 kts 274°
2026-05-07 18:50 60.17236 9.37190 25538 ft 388 kts 274°
2026-05-07 18:50 60.17401 9.31774 26084 ft 387 kts 274°
2026-05-07 18:50 60.17561 9.26423 26824 ft 381 kts 274°
2026-05-07 18:50 60.17717 9.21152 27504 ft 377 kts 274°
2026-05-07 18:51 60.17870 9.15906 28022 ft 376 kts 274°
2026-05-07 18:51 60.18174 9.05310 28105 ft 379 kts 274°
2026-05-07 18:52 60.18467 8.94763 28090 ft 377 kts 274°
2026-05-07 18:52 60.18751 8.84263 28108 ft 376 kts 274°
2026-05-07 18:53 60.19028 8.73756 28125 ft 377 kts 274°
2026-05-07 18:53 60.19296 8.63224 28128 ft 378 kts 273°
2026-05-07 18:54 60.19557 8.52654 28143 ft 379 kts 273°
2026-05-07 18:54 60.19811 8.42071 28152 ft 379 kts 273°
2026-05-07 18:55 60.20056 8.31492 28115 ft 379 kts 273°
2026-05-07 18:55 60.20337 8.20965 28139 ft 381 kts 274°
2026-05-07 18:56 60.20665 8.10318 28145 ft 382 kts 274°
2026-05-07 18:56 60.20986 7.99631 28167 ft 384 kts 273°
2026-05-07 18:57 60.21293 7.88936 28145 ft 379 kts 273°
2026-05-07 18:57 60.21437 7.83737 27934 ft 368 kts 273°
2026-05-07 18:57 60.21577 7.78662 27586 ft 359 kts 273°
2026-05-07 18:57 60.21711 7.73677 27170 ft 354 kts 273°
2026-05-07 18:58 60.21842 7.68760 26684 ft 350 kts 273°
2026-05-07 18:58 60.21970 7.63894 26221 ft 347 kts 273°
2026-05-07 18:58 60.22095 7.59072 25774 ft 343 kts 273°
2026-05-07 18:58 60.22216 7.54296 25321 ft 341 kts 273°
2026-05-07 18:59 60.22336 7.49553 24870 ft 338 kts 273°
2026-05-07 18:59 60.22452 7.44850 24429 ft 336 kts 273°
2026-05-07 18:59 60.22567 7.40168 23991 ft 334 kts 273°
2026-05-07 18:59 60.22679 7.35515 23522 ft 332 kts 272°
2026-05-07 19:00 60.22789 7.30884 23021 ft 330 kts 272°
2026-05-07 19:00 60.22897 7.26284 22566 ft 327 kts 272°
2026-05-07 19:00 60.23002 7.21732 22100 ft 325 kts 272°
2026-05-07 19:00 60.23105 7.17202 21667 ft 323 kts 272°
2026-05-07 19:01 60.23206 7.12694 21239 ft 321 kts 272°
2026-05-07 19:01 60.23305 7.08211 20806 ft 320 kts 272°
2026-05-07 19:01 60.23402 7.03754 20391 ft 318 kts 271°
2026-05-07 19:01 60.23497 6.99311 19978 ft 317 kts 271°
2026-05-07 19:02 60.23588 6.94943 19533 ft 316 kts 271°
2026-05-07 19:02 60.23680 6.90536 19119 ft 315 kts 271°
2026-05-07 19:02 60.23770 6.86120 18704 ft 315 kts 271°
2026-05-07 19:02 60.23858 6.81724 18290 ft 314 kts 271°
2026-05-07 19:03 60.23943 6.77335 17831 ft 313 kts 271°
2026-05-07 19:03 60.24029 6.72953 17279 ft 315 kts 271°
2026-05-07 19:03 60.24115 6.68494 16541 ft 322 kts 271°
2026-05-07 19:03 60.24200 6.63974 16012 ft 324 kts 270°
2026-05-07 19:04 60.24335 6.59440 15529 ft 325 kts 277°
2026-05-07 19:04 60.25053 6.55161 15288 ft 320 kts 292°
2026-05-07 19:04 60.26025 6.51155 14934 ft 315 kts 293°
2026-05-07 19:04 60.27008 6.47239 14566 ft 313 kts 294°
2026-05-07 19:05 60.27989 6.43339 14190 ft 312 kts 294°
2026-05-07 19:05 60.28962 6.39432 13786 ft 312 kts 293°
2026-05-07 19:05 60.29930 6.35514 13336 ft 311 kts 293°
2026-05-07 19:05 60.30885 6.31618 12940 ft 309 kts 293°
2026-05-07 19:06 60.31833 6.27734 12567 ft 307 kts 292°
2026-05-07 19:06 60.33708 6.20022 11759 ft 305 kts 292°
2026-05-07 19:06 60.34634 6.16193 11367 ft 303 kts 292°
2026-05-07 19:07 60.35543 6.12433 11002 ft 301 kts 292°
2026-05-07 19:07 60.36460 6.08628 10653 ft 299 kts 292°
2026-05-07 19:07 60.37354 6.04903 10530 ft 291 kts 292°
2026-05-07 19:07 60.38225 6.01271 10396 ft 284 kts 291°
2026-05-07 19:08 60.39075 5.97725 10266 ft 277 kts 291°
2026-05-07 19:08 60.39902 5.94259 10152 ft 270 kts 291°
2026-05-07 19:08 60.40712 5.90862 9929 ft 268 kts 291°
2026-05-07 19:08 60.41519 5.87463 9639 ft 268 kts 291°
2026-05-07 19:09 60.42326 5.84064 9340 ft 268 kts 291°
2026-05-07 19:09 60.43133 5.80665 9058 ft 266 kts 291°
2026-05-07 19:09 60.43934 5.77289 8779 ft 265 kts 291°
2026-05-07 19:09 60.44732 5.73916 8495 ft 266 kts 292°
2026-05-07 19:10 60.45523 5.70577 8350 ft 259 kts 292°
2026-05-07 19:10 60.46288 5.67335 8257 ft 252 kts 291°
2026-05-07 19:10 60.47055 5.64201 8130 ft 247 kts 298°
2026-05-07 19:10 60.48303 5.61860 8021 ft 249 kts 333°
2026-05-07 19:11 60.49974 5.61094 8040 ft 248 kts 355°
2026-05-07 19:11 60.51729 5.61080 8052 ft 256 kts 359°
2026-05-07 19:11 60.53529 5.61165 8037 ft 262 kts 356°
2026-05-07 19:11 60.55291 5.60292 7879 ft 260 kts 335°
2026-05-07 19:12 60.56975 5.58973 7679 ft 258 kts 337°
2026-05-07 19:12 60.58645 5.57714 7497 ft 254 kts 334°
2026-05-07 19:12 60.60088 5.55790 7302 ft 245 kts 315°
2026-05-07 19:12 60.61385 5.53517 7076 ft 248 kts 317°
2026-05-07 19:13 60.62710 5.51270 6881 ft 248 kts 317°
2026-05-07 19:13 60.63898 5.48768 6688 ft 244 kts 299°
2026-05-07 19:13 60.64728 5.45778 6544 ft 243 kts 297°
2026-05-07 19:13 60.65573 5.42779 6347 ft 244 kts 296°
2026-05-07 19:14 60.66380 5.39746 6148 ft 241 kts 285°
2026-05-07 19:14 60.66710 5.36458 5987 ft 235 kts 273°
2026-05-07 19:14 60.66924 5.33162 5814 ft 233 kts 268°
2026-05-07 19:14 60.66590 5.30045 5629 ft 223 kts 235°
2026-05-07 19:15 60.65527 5.27882 5498 ft 215 kts 207°
2026-05-07 19:15 60.64130 5.26919 5349 ft 212 kts 184°
2026-05-07 19:15 60.62660 5.26942 5212 ft 211 kts 176°
2026-05-07 19:15 60.61181 5.27088 5046 ft 214 kts 176°
2026-05-07 19:16 60.59687 5.27235 4885 ft 215 kts 176°
2026-05-07 19:16 60.58184 5.27378 4731 ft 217 kts 176°
2026-05-07 19:16 60.56667 5.27517 4564 ft 219 kts 176°
2026-05-07 19:16 60.55142 5.27654 4413 ft 220 kts 177°
2026-05-07 19:17 60.53612 5.27789 4245 ft 221 kts 176°
2026-05-07 19:17 60.52076 5.27859 4074 ft 221 kts 185°
2026-05-07 19:17 60.50666 5.26662 3880 ft 225 kts 218°
2026-05-07 19:17 60.49676 5.24203 3708 ft 228 kts 236°
2026-05-07 19:18 60.48893 5.21426 3505 ft 226 kts 238°
2026-05-07 19:18 60.48135 5.18658 3294 ft 223 kts 236°
2026-05-07 19:18 60.47076 5.16502 3038 ft 214 kts 200°
2026-05-07 19:18 60.45659 5.16282 2904 ft 203 kts 168°
2026-05-07 19:19 60.44283 5.16823 2719 ft 201 kts 171°
2026-05-07 19:19 60.42909 5.17245 2557 ft 197 kts 170°
2026-05-07 19:19 60.41589 5.17675 2428 ft 187 kts 169°
2026-05-07 19:19 60.40348 5.18095 2223 ft 180 kts 169°
2026-05-07 19:20 60.39139 5.18505 1971 ft 174 kts 170°
2026-05-07 19:20 60.37964 5.18899 1755 ft 166 kts 170°
2026-05-07 19:20 60.36836 5.19282 1543 ft 164 kts 169°
2026-05-07 19:20 60.35734 5.19660 1320 ft 155 kts 170°
2026-05-07 19:21 60.34706 5.20002 1090 ft 149 kts 171°
2026-05-07 19:21 60.33671 5.20358 839 ft 152 kts 171°
2026-05-07 19:21 60.32617 5.20707 632 ft 155 kts 171°
2026-05-07 19:21 60.31558 5.21088 417 ft 154 kts 171°
2026-05-07 19:22 60.30502 5.21432 223 ft 153 kts 172°
2026-05-07 19:22 60.29500 5.21763 150 ft 135 kts 172°
2026-05-07 19:22 60.28900 5.21963 163 ft 35 kts 171°
2026-05-07 19:22 60.28749 5.22011 161 ft 26 kts 171°
2026-05-07 19:23 60.28668 5.22174 160 ft 11 kts 79°
2026-05-07 19:23 60.28675 5.22246 163 ft 0 kts 79°
2026-05-07 19:25 60.28677 5.22263 164 ft 4 kts 79°
2026-05-07 19:25 60.28683 5.22343 166 ft 8 kts 81°
2026-05-07 19:25 60.28702 5.22469 171 ft 11 kts 64°
2026-05-07 19:25 60.28720 5.22623 173 ft 12 kts 81°
2026-05-07 19:26 60.28731 5.22778 173 ft 9 kts 83°
2026-05-07 19:26 60.28740 5.22895 175 ft 8 kts 81°
2026-05-07 19:26 60.28741 5.22910 175 ft 0 kts 81°